Weather History for Worcester, MA

Change the Weather History Date:

Saturday, October 23, 2010

  Actual Average Record
Temperature  
Mean Temperature 44 °F 48 °F  
Max Temperature 55 °F 56 °F 82 °F (1947)
Min Temperature 32 °F 39 °F 22 °F (1969)
Degree Days  
Heating Degree Days 21 17  
Month to date heating degree days 348 318  
Since 1 July heating degree days 473 511  
Cooling Degree Days 0 0  
Month to date cooling degree days 0 0  
Year to date cooling degree days 728 468  
Moisture  
Dew Point -    
Average Humidity 64    
Maximum Humidity 85    
Minimum Humidity 43    
Precipitation  
Precipitation T in 0.14 in 1.91 in (1923)
Month to date precipitation 5.85 3.54  
Year to date precipitation 41.63 38.83  
Snow  
Snow T in 0.00 in 1.50 in (2003)
Month to date snowfall T 0.1  
Since 1 July snowfall T 0.1  
Since 1 September snowfall T 0.1  
Snow Depth 0.00 in    
Wind  
Wind Speed 9 mph (North)    
Max Wind Speed 22 mph    
Max Gust Speed 31 mph    
T = Trace of Precipitation, MM = Missing Value Source: NWS Daily Summary

Daily Weather History Graph

Daily Weather History Graph

Search for Another Location

Airport:

Trip Planner

Search our weather history database for the weather conditions in past years. The results will help you decide how hot, cold, wet, or windy it might be!

Date:

Astronomy

Oct. 23, 2010 Rise Set
Actual Time 7:09 AM EDT 5:53 PM EDT
Civil Twilight 6:40 AM EDT 6:21 PM EDT
Nautical Twilight 6:08 AM EDT 6:54 PM EDT
Astronomical Twilight 5:35 AM EDT 7:27 PM EDT
Moon 5:52 PM EDT (10/23) 7:48 AM EDT (10/23)
Length of Visible Light 11h 41m
Length of Day
10h 43m
Full, 100% of the Moon is Illuminated
Oct 23
Full
Oct 30
Last Quarter
Nov 6
New
Nov 13
First Quarter
Nov 21
Full

Hourly Weather History & Observations

Time (EDT) Temp. Windchill Dew Point Humidity Pressure Visibility Wind Dir Wind Speed Gust Speed Precip Events Conditions
12:54 AM 36.0 °F 29.6 °F 21.9 °F 57% 30.01 in 10.0 mi West 8.1 mph - N/A   Clear
1:54 AM 33.1 °F 27.7 °F 23.0 °F 66% 30.01 in 10.0 mi WSW 5.8 mph - N/A   Partly Cloudy
2:54 AM 34.0 °F 27.2 °F 26.1 °F 73% 30.00 in 10.0 mi WSW 8.1 mph - N/A   Scattered Clouds
3:54 AM 36.0 °F 30.3 °F 28.9 °F 76% 30.00 in 10.0 mi West 6.9 mph - 0.00 in   Overcast
4:29 AM 35.6 °F 30.7 °F 28.4 °F 75% 29.99 in 10.0 mi West 5.8 mph - 0.00 in Snow Light Snow
4:54 AM 36.0 °F 29.6 °F 28.9 °F 76% 30.03 in 10.0 mi West 8.1 mph - 0.00 in   Overcast
5:54 AM 37.0 °F 31.0 °F 30.0 °F 76% 30.04 in 10.0 mi West 8.1 mph - N/A   Overcast
6:22 AM 35.6 °F 28.0 °F 30.2 °F 81% 30.01 in 10.0 mi West 10.4 mph - N/A   Partly Cloudy
6:54 AM 35.1 °F 28.6 °F 30.9 °F 85% 30.05 in 10.0 mi West 8.1 mph - N/A   Clear
7:54 AM 37.0 °F 29.8 °F 33.1 °F 86% 30.07 in 10.0 mi West 10.4 mph - N/A   Scattered Clouds
8:54 AM 39.0 °F 33.4 °F 34.0 °F 82% 30.09 in 10.0 mi West 8.1 mph - N/A   Clear
9:54 AM 42.1 °F 35.2 °F 33.1 °F 70% 30.09 in 10.0 mi WNW 12.7 mph 28.8 mph N/A   Scattered Clouds
10:06 AM 42.8 °F 35.8 °F 33.8 °F 70% 30.06 in 10.0 mi WNW 13.8 mph 26.5 mph N/A   Mostly Cloudy
10:51 AM 46.4 °F 40.4 °F 33.8 °F 62% 30.06 in 10.0 mi WNW 13.8 mph 20.7 mph N/A   Scattered Clouds
10:54 AM 46.9 °F - 34.0 °F 61% 30.08 in 10.0 mi WNW 15.0 mph 20.7 mph N/A   Scattered Clouds
11:54 AM 48.9 °F - 34.0 °F 56% 30.07 in 10.0 mi West 15.0 mph 23.0 mph N/A   Scattered Clouds
12:54 PM 52.0 °F - 34.0 °F 50% 30.05 in 10.0 mi West 19.6 mph 27.6 mph N/A   Scattered Clouds
1:54 PM 55.0 °F - 34.0 °F 45% 30.04 in 10.0 mi WNW 16.1 mph 21.9 mph N/A   Mostly Cloudy
2:54 PM 54.0 °F - 33.1 °F 45% 30.04 in 10.0 mi WNW 16.1 mph 27.6 mph N/A   Scattered Clouds
3:54 PM 54.0 °F - 34.0 °F 47% 30.06 in 10.0 mi NW 16.1 mph 21.9 mph N/A   Partly Cloudy
4:54 PM 53.1 °F - 34.0 °F 48% 30.08 in 10.0 mi WNW 9.2 mph - N/A   Overcast
5:54 PM 50.0 °F - 35.1 °F 57% 30.11 in 10.0 mi WNW 6.9 mph - N/A   Overcast
6:54 PM 48.0 °F - 36.0 °F 63% 30.13 in 10.0 mi WNW 4.6 mph - N/A   Overcast
7:54 PM 46.9 °F - 37.0 °F 68% 30.15 in 10.0 mi West 6.9 mph - N/A   Overcast
8:54 PM 46.9 °F - 37.0 °F 68% 30.14 in 10.0 mi WNW 4.6 mph - N/A   Overcast
9:54 PM 42.1 °F 37.7 °F 36.0 °F 79% 30.15 in 10.0 mi WNW 6.9 mph - N/A   Partly Cloudy
10:54 PM 44.1 °F - 36.0 °F 73% 30.17 in 10.0 mi Calm Calm - N/A   Clear
11:54 PM 42.1 °F - 37.0 °F 82% 30.18 in 10.0 mi Calm Calm - N/A   Partly Cloudy